Flag for South Africa Weather past 2 weeks in Port Elizabeth, South Africa

Now
43 °F

Passing clouds.


Feels Like: 39 °F
Forecast: 41 / 72 °F
Wind: 6 mph from Northwest

Location: Port Elizabeth Airport

Current Time: Aug 1, 2015 at 6:30:15 AM

Latest Report: Aug 1, 2015 at 5:00 AM


Visibility: N/A

Pressure: 30.33 "Hg

Humidity: 76%

Dew point: 36 °F

Location of Port ElizabethLocation

Historic Weather in Port Elizabeth — Graph

°F

Port Elizabeth temperature yesterday

Maximum temperature yesterday: 55 °F (at 3:00 PM)
Minimum temperature yesterday: 48 °F (at 10:00 PM)
Average temperature yesterday: 51 °F

Past Weeks' High & Low Weather Summary

 TemperatureHumidityPressure
High70 °F (Jul 28, 4:00 PM)100% (Jul 28, 8:00 AM)30.51 "Hg (Jul 28, 8:00 AM)
Low39 °F (Jul 27, 8:00 AM)37% (Jul 30, 12:00 PM)29.80 "Hg (Jul 17, 2:00 PM)
Average55 °F77%30.14 "Hg
* Reported Jul 17 5:00 AM — Aug 1 5:00 AM, Port Elizabeth, Weather by CustomWeather, © 2015

Note: Actual official high and low records may vary slightly from our data, if they occured in-between our weather recording intervals... More about our weather records

Advertising

Port Elizabeth weather history for previous 24 hours

 ConditionsComfort  
Time TempWeatherWind HumidityBarometerVisibility
5:00 AM
Sat, Aug 1
43 °FPassing clouds.6 mph76%30.33 "HgN/A
4:00 AM45 °FClear.6 mph81%30.33 "Hg10 mi
3:00 AM43 °FClear.6 mph81%30.33 "Hg10 mi
2:00 AM48 °FClear.8 mph76%30.36 "Hg10 mi
1:00 AM46 °FClear.8 mph82%30.36 "Hg10 mi
12:00 AM48 °FClear.9 mph76%30.36 "Hg10 mi
11:00 PM
Fri, Jul 31
50 °FClear.9 mph71%30.36 "Hg10 mi
10:00 PM48 °FClear.7 mph71%30.36 "Hg10 mi
9:00 PM50 °FPassing clouds.8 mph71%30.36 "HgN/A
8:00 PM52 °FPassing clouds.12 mph72%30.36 "HgN/A
7:00 PM52 °FPassing clouds.16 mph67%30.33 "HgN/A
6:00 PM54 °FPassing clouds.15 mph63%30.33 "HgN/A
5:00 PM54 °FPassing clouds.21 mph63%30.33 "HgN/A
4:00 PM55 °FPartly sunny.21 mph59%30.30 "HgN/A
3:00 PM55 °FPartly sunny.17 mph63%30.30 "HgN/A
2:00 PM54 °FLight rain. Broken clouds.18 mph67%30.30 "HgN/A
1:00 PM52 °FSprinkles. Broken clouds.17 mph77%30.33 "HgN/A
12:00 PM52 °FSprinkles. Broken clouds.24 mph77%30.30 "HgN/A
11:00 AM52 °FSprinkles. Broken clouds.17 mph72%30.30 "HgN/A
10:00 AM50 °FSprinkles. Broken clouds.18 mph71%30.27 "Hg5 mi
9:00 AM50 °FSprinkles. Broken clouds.20 mph71%30.24 "Hg5 mi
8:49 AM50 °FRain showers. Broken clouds.22 mph71%30.24 "HgN/A
8:00 AM50 °FSprinkles. Broken clouds.18 mph67%30.21 "HgN/A
7:00 AM50 °FPassing clouds.22 mph62%30.18 "HgN/A
6:00 AM50 °FClear.25 mph62%30.15 "Hg10 mi
Weather by CustomWeather, © 2015

See weather overviewHow to use our weather pages